Medford, OR

9:23 AM PDT on June 25, 2018 (GMT -0700)
Rogue Valley International-Medford

Weather History for KMFR - September, 2017

Change the Weather History Date:

Thursday, September 14, 2017

  Actual Average Record
Temperature  
Mean Temperature 66 °F 67 °F  
Max Temperature 78 °F 84 °F 103 °F (1979)
Min Temperature 54 °F 51 °F 32 °F (1970)
Degree Days  
Heating Degree Days 0 2  
Month to date heating degree days 0 15  
Since 1 July heating degree days 0 25  
Cooling Degree Days 1 4  
Month to date cooling degree days 146 70  
Year to date cooling degree days 1271 777  
Growing Degree Days 16 (Base 50)    
Moisture  
Dew Point 34 °F    
Average Humidity 32    
Maximum Humidity 55    
Minimum Humidity 8    
Precipitation  
Precipitation 0.00 in 0.02 in 0.81 in (1918)
Month to date precipitation 0.12 0.23  
Year to date precipitation 13.34 10.37  
Snow  
Snow 0.00 in 0.00 in - ()
Month to date snowfall 0.0 0.0  
Since 1 July snowfall 0.0 0.0  
Snow Depth 0.00 in    
Sea Level Pressure  
Sea Level Pressure 29.88 in    
Wind  
Wind Speed 4 mph (NW)    
Max Wind Speed 17 mph    
Max Gust Speed 22 mph    
Visibility 10 miles    
Events      
T = Trace of Precipitation, MM = Missing Value Source: NWS Daily Summary

Daily Weather History Graph

Daily Weather History Graph

Search for Another Location

Airport or City:

Astronomy

Sep. 14, 2017 Rise Set
Actual Time 6:50 AM PDT 7:22 PM PDT
Civil Twilight 6:22 AM PDT 7:50 PM PDT
Nautical Twilight 5:49 AM PDT 8:23 PM PDT
Astronomical Twilight 5:14 AM PDT 8:57 PM PDT
Moon 12:47 AM PDT (9/14) 3:50 PM PDT (9/14)
Length of Visible Light 13h 27m
Length of Day
12h 31m
Waning Crescent, 33% of the Moon is Illuminated
Sep 14
Waning Crescent
Sep 19
New
Sep 27
First Quarter
Oct 5
Full
Oct 12
Last Quarter

Hourly Weather History & Observations

Time (PDT) Temp. Dew Point Humidity Pressure Visibility Wind Dir Wind Speed Gust Speed Precip Events Conditions
12:53 AM 63.0 °F 39.0 °F 41% 29.83 in 10.0 mi Calm Calm - N/A   Smoke
1:53 AM 60.1 °F 39.9 °F 47% 29.84 in 10.0 mi Calm Calm - N/A   Smoke
2:53 AM 57.9 °F 41.0 °F 53% 29.84 in 10.0 mi Calm Calm - N/A   Smoke
3:53 AM 57.0 °F 39.9 °F 53% 29.84 in 10.0 mi Calm Calm - N/A   Smoke
4:53 AM 55.0 °F 39.0 °F 55% 29.86 in 10.0 mi Calm Calm - N/A   Smoke
5:53 AM 55.9 °F 37.0 °F 49% 29.87 in 10.0 mi Calm Calm - N/A   Smoke
6:53 AM 55.9 °F 37.9 °F 51% 29.88 in 10.0 mi Calm Calm - N/A   Smoke
7:53 AM 57.0 °F 39.0 °F 51% 29.90 in 10.0 mi Calm Calm - N/A   Smoke
8:53 AM 57.9 °F 39.9 °F 51% 29.91 in 10.0 mi NNE 3.5 mph - N/A   Smoke
9:53 AM 63.0 °F 39.9 °F 43% 29.90 in 10.0 mi Calm Calm - N/A   Smoke
10:53 AM 66.9 °F 39.9 °F 37% 29.89 in 10.0 mi Calm Calm - N/A   Clear
11:53 AM 69.1 °F 37.9 °F 32% 29.89 in 10.0 mi South 3.5 mph - N/A   Clear
12:53 PM 73.9 °F 36.0 °F 25% 29.87 in 10.0 mi Variable 3.5 mph - N/A   Scattered Clouds
1:53 PM 75.9 °F 19.9 °F 12% 29.86 in 10.0 mi Variable 3.5 mph - N/A   Clear
2:53 PM 77.0 °F 10.9 °F 8% 29.84 in 10.0 mi NW 10.4 mph - N/A   Clear
3:53 PM 77.0 °F 21.9 °F 13% 29.83 in 10.0 mi WNW 11.5 mph - N/A   Clear
4:53 PM 77.0 °F 18.0 °F 11% 29.83 in 10.0 mi WNW 11.5 mph - N/A   Clear
5:53 PM 75.9 °F 24.1 °F 15% 29.84 in 10.0 mi NNW 11.5 mph - N/A   Clear
6:53 PM 72.0 °F 30.0 °F 21% 29.87 in 10.0 mi North 15.0 mph - N/A   Clear
7:53 PM 68.0 °F 33.1 °F 27% 29.89 in 10.0 mi North 10.4 mph - N/A   Clear
8:53 PM 64.0 °F 33.1 °F 31% 29.93 in 10.0 mi SE 5.8 mph - N/A   Clear
9:53 PM 64.9 °F 34.0 °F 32% 29.93 in 10.0 mi NNW 4.6 mph - N/A   Clear
10:53 PM 60.1 °F 37.9 °F 44% 29.95 in 10.0 mi SSW 5.8 mph - N/A   Clear
11:53 PM 57.0 °F 37.9 °F 49% 29.97 in 10.0 mi South 4.6 mph - N/A   Clear